C/2020 T4 ( PanSTARRS )

Japanese version
Home page
Updated on September 29, 2021

---------------------------------------------------------------------

* Profile

Discovery Date October 15, 2020
Magnitude 21.0 mag
Discoverer Pan-STARRS 1 telescope (Haleakala)

* Pictures

* Orbital Elements

Epoch 2021 July 5.0 TT = JDT 2459400.5
T 2021 July 5.25209 TT                                  Rudenko
q   2.1918391            (2000.0)            P               Q
z  -0.0000353      Peri.   79.60572     +0.03254603     -0.63907346
 +/-0.0000030      Node    50.62021     -0.19932585     -0.75756924
e   1.0000773      Incl.   83.81406     +0.97939265     -0.13294344
From 174 observations 2020 Sept. 26-2021 June 17, mean residual 0".4.

* Magnitudes Graph

        m1 = 12.0 + 5 log d + 10.0 log r

---------------------------------------------------------------------

The orbital elements are published on M.P.E.C. 2021-N06.
The magnitudes graphs are made with Comet for Windows.

---------------------------------------------------------------------

Copyright(C) Seiichi Yoshida (comet@aerith.net). All rights reserved.